Weather in Orlovsky

Russia / Zabaykalsky Krai     51°02′13″N   114°50′59″E
temp.,
°C
wind,
m/s
gust,
m/s
humid.,
%
clouds,
%
prec.,
mm/h
press.,
hPa
HPBL,
m
14 june, mon
mon1400:00+16wnw2281100 0.1 100341
03:00+15nnw5994100 2.4 1003335
06:00+14wnw2492100 0.4 1004255
09:00+15nw3574100 0.4 1004593
12:00+19nw6747100 0.0 10031063
15:00+22nnw453584 0.0 10011843
18:00+24nw362826 0.0 10002777
21:00+18nnw46440 0.0 1000103
15 june, tue
tue1500:00+14nw3346100 0.0 100228
03:00+14nw3850100 0.0 1003158
06:00+13w2254100 0.0 100351
09:00+15wnw6955100 0.0 1004506
12:00+18nw673795 0.0 10041208
15:00+21nw4630100 0.0 10031986
18:00+20wnw3635100 0.0 10021865
21:00+17wnw1144100 0.0 100211
16 june, wed
wed1600:00+16wsw3346100 0.0 100357
03:00+14nw51056100 0.0 1003388
06:00+11nw81359100 0.0 1004402
09:00+14nw8952100 0.0 1004602
12:00+18nw7749100 0.0 10021455
15:00+13nnw71076100 1.3 1003669
18:00+12wnw61286100 2.1 1002451
21:00+12nw4991100 4.8 1001390
17 june, thu
thu1700:00+12nw51191100 1.3 1000374
03:00+10nw51191100 1.9 998372
06:00+11nnw71481100 0.3 997578
09:00+12nnw101771100 0.7 9951666
12:00+11n122279100 3.3 9931907
15:00+11n122387100 14.8 9931807
18:00+11n112486100 8.9 9931827
21:00+11nnw102188100 14.8 9931642
18 june, fri
fri1800:00+11n112085100 3.8 9941575
03:00+11nnw112086100 6.4 9941342
06:00+10nnw101886100 1.3 9931353
09:00+10nnw111890100 5.5 993998
12:00+11nnw101688100 2.3 994846
15:00+10nnw81492100 5.3 995757
18:00+10nnw61293100 3.4 995604
21:00+10nnw41095100 7.3 996508